Weather History for Fort Morgan, CO

Change the Weather History Date:

Thursday, April 11, 2013

  Actual Average (KAKO) Record (KAKO)
Temperature  
Mean Temperature 30 °F 45 °F  
Max Temperature 49 °F 59 °F 79 °F (1982)
Min Temperature 12 °F 32 °F 6 °F (1953)
Degree Days  
Heating Degree Days 34    
Month to date heating degree days  
Cooling Degree Days 0    
Month to date cooling degree days  
Moisture  
Dew Point 23 °F    
Average Humidity 74    
Maximum Humidity 92    
Minimum Humidity 51    
Precipitation  
Precipitation 0.00 in 0.05 in 0.48 in (1943)
Month to date precipitation 0.47  
Year to date precipitation 2.08  
Sea Level Pressure  
Sea Level Pressure 29.80 in    
Wind  
Wind Speed 9 mph (NW)    
Max Wind Speed 33 mph    
Max Gust Speed 39 mph    
Visibility 10 miles    
Events      
T = Trace of Precipitation, MM = Missing Value Source: NWS Daily Summary

Daily Weather History Graph

Daily Weather History Graph

Search for Another Location

Airport:

Trip Planner

Search our weather history database for the weather conditions in past years. The results will help you decide how hot, cold, wet, or windy it might be!

Date:

Astronomy

Apr. 11, 2013 Rise Set
Actual Time 6:22 AM MDT 7:30 PM MDT
Civil Twilight 5:54 AM MDT 7:58 PM MDT
Nautical Twilight 5:21 AM MDT 8:31 PM MDT
Astronomical Twilight 4:46 AM MDT 9:06 PM MDT
Moon 6:55 AM MDT (4/11) 9:07 PM MDT (4/11)
Length of Visible Light 14h 03m
Length of Day
13h 07m
New Moon, 2% of the Moon is Illuminated
Apr 11
New Moon
Apr 18
First Quarter
Apr 25
Full
May 2
Last Quarter
May 9
New

Hourly Weather History & Observations

Time (MDT) Temp. Windchill Dew Point Humidity Pressure Visibility Wind Dir Wind Speed Gust Speed Precip Events Conditions
12:15 AM 13.8 °F 4.9 °F 10.9 °F 88% 29.90 in 10.0 mi West 5.8 mph - N/A   Clear
12:35 AM 13.8 °F 4.9 °F 11.3 °F 90% 29.89 in 10.0 mi West 5.8 mph - N/A   Scattered Clouds
12:55 AM 13.8 °F 4.9 °F 11.1 °F 89% 29.89 in 10.0 mi West 5.8 mph - N/A   Scattered Clouds
1:15 AM 14.4 °F 5.5 °F 11.7 °F 89% 29.87 in 10.0 mi West 5.8 mph - N/A   Clear
1:35 AM 14.0 °F 3.9 °F 11.1 °F 88% 29.86 in 10.0 mi West 6.9 mph - N/A   Clear
1:55 AM 14.9 °F 6.1 °F 11.7 °F 87% 29.85 in 10.0 mi West 5.8 mph - N/A   Clear
2:15 AM 14.7 °F 7.3 °F 11.3 °F 86% 29.83 in 10.0 mi WNW 4.6 mph - N/A   Clear
2:35 AM 14.7 °F 5.9 °F 11.8 °F 88% 29.82 in 10.0 mi West 5.8 mph - N/A   Clear
2:55 AM 14.2 °F 5.3 °F 10.9 °F 87% 29.80 in 10.0 mi WNW 5.8 mph - N/A   Clear
3:15 AM 14.7 °F 5.9 °F 12.0 °F 89% 29.79 in 10.0 mi WNW 5.8 mph - N/A   Clear
3:35 AM 13.6 °F 2.5 °F 10.6 °F 88% 29.78 in 10.0 mi West 8.1 mph - N/A   Clear
3:55 AM 13.3 °F 3.0 °F 10.4 °F 88% 29.78 in 10.0 mi West 6.9 mph - N/A   Clear
4:15 AM 12.4 °F 2.0 °F 9.5 °F 88% 29.77 in 10.0 mi West 6.9 mph - N/A   Clear
4:35 AM 13.1 °F 0.9 °F 10.2 °F 88% 29.77 in 10.0 mi West 9.2 mph - N/A   Scattered Clouds
4:55 AM 12.4 °F 0.9 °F 9.9 °F 90% 29.75 in 10.0 mi West 8.1 mph - N/A   Scattered Clouds
5:15 AM 12.2 °F 2.9 °F 9.5 °F 89% 29.74 in 10.0 mi WNW 5.8 mph - N/A   Scattered Clouds
5:35 AM 13.1 °F 0.9 °F 10.8 °F 90% 29.74 in 10.0 mi West 9.2 mph - N/A   Mostly Cloudy
5:55 AM 13.3 °F 1.1 °F 10.9 °F 90% 29.73 in 10.0 mi West 9.2 mph - N/A   Mostly Cloudy
6:15 AM 14.2 °F 1.4 °F 12.2 °F 92% 29.74 in 10.0 mi West 10.4 mph - N/A   Overcast
6:35 AM 14.5 °F 5.7 °F 12.4 °F 91% 29.74 in 10.0 mi West 5.8 mph - N/A   Mostly Cloudy
6:55 AM 17.6 °F 9.3 °F 14.9 °F 89% 29.75 in 10.0 mi West 5.8 mph - N/A   Overcast
7:15 AM 20.1 °F 9.5 °F 16.3 °F 85% 29.74 in 10.0 mi West 9.2 mph - N/A   Overcast
7:35 AM 21.6 °F 10.6 °F 17.8 °F 85% 29.74 in 10.0 mi West 10.4 mph - N/A   Mostly Cloudy
7:55 AM 22.8 °F 15.5 °F 17.8 °F 81% 29.74 in 10.0 mi WNW 5.8 mph - N/A   Mostly Cloudy
8:15 AM 23.7 °F 14.7 °F 18.3 °F 80% 29.74 in 10.0 mi West 8.1 mph - N/A   Overcast
8:35 AM 24.8 °F 12.9 °F 18.5 °F 77% 29.74 in 10.0 mi West 13.8 mph - N/A   Mostly Cloudy
8:55 AM 25.7 °F 14.6 °F 18.9 °F 75% 29.75 in 10.0 mi West 12.7 mph - N/A   Mostly Cloudy
9:15 AM 27.5 °F 16.8 °F 18.7 °F 69% 29.75 in 10.0 mi West 12.7 mph - N/A   Overcast
9:35 AM 28.0 °F 17.0 °F 19.2 °F 70% 29.76 in 10.0 mi West 13.8 mph - N/A   Overcast
9:55 AM 30.0 °F 21.1 °F 20.7 °F 68% 29.76 in 10.0 mi WNW 10.4 mph - N/A   Mostly Cloudy
10:15 AM 30.7 °F 22.6 °F 22.1 °F 70% 29.77 in 10.0 mi West 9.2 mph - N/A   Mostly Cloudy
10:35 AM 32.4 °F 27.9 °F 22.8 °F 68% 29.77 in 10.0 mi NW 4.6 mph - N/A   Mostly Cloudy
11:15 AM 33.3 °F 30.2 °F 22.8 °F 66% 29.80 in 10.0 mi North 3.5 mph - N/A   Overcast
11:35 AM 33.4 °F 28.1 °F 23.9 °F 68% 29.80 in 10.0 mi NE 5.8 mph - N/A   Overcast
11:55 AM 34.0 °F 27.2 °F 24.3 °F 68% 29.80 in 10.0 mi NE 8.1 mph - N/A   Overcast
12:15 PM 35.1 °F 29.3 °F 25.5 °F 68% 29.81 in 10.0 mi ENE 6.9 mph - N/A   Overcast
12:35 PM 37.4 °F 31.4 °F 26.4 °F 65% 29.80 in 10.0 mi ENE 8.1 mph - N/A   Overcast
12:55 PM 36.3 °F 30.1 °F 27.0 °F 69% 29.80 in 10.0 mi East 8.1 mph - N/A   Overcast
1:15 PM 38.5 °F 32.7 °F 28.6 °F 68% 29.80 in 10.0 mi ENE 8.1 mph - N/A   Overcast
1:35 PM 39.2 °F - 28.6 °F 66% 29.80 in 10.0 mi Calm Calm - N/A   Mostly Cloudy
1:55 PM 40.8 °F - 29.8 °F 65% 29.80 in 10.0 mi Calm Calm - N/A   Scattered Clouds
2:15 PM 43.3 °F - 31.3 °F 62% 29.81 in 10.0 mi Calm Calm - N/A   Scattered Clouds
2:35 PM 45.5 °F 40.3 °F 34.0 °F 64% 29.81 in 10.0 mi NNW 10.4 mph - N/A   Scattered Clouds
2:55 PM 46.8 °F - 34.3 °F 62% 29.80 in 10.0 mi NNW 10.4 mph 16.1 mph N/A   Mostly Cloudy
3:15 PM 47.8 °F - 34.7 °F 60% 29.79 in 10.0 mi NNW 27.6 mph 32.2 mph N/A   Scattered Clouds
3:35 PM 47.5 °F - 33.6 °F 59% 29.79 in 10.0 mi NNW 27.6 mph 32.2 mph N/A   Scattered Clouds
3:55 PM 48.9 °F - 33.3 °F 55% 29.79 in 10.0 mi NNW 27.6 mph 36.8 mph N/A   Clear
4:15 PM 49.3 °F - 32.7 °F 53% 29.78 in 10.0 mi NNW 33.4 mph 39.1 mph N/A   Scattered Clouds
4:35 PM 46.8 °F - 32.0 °F 57% 29.78 in 10.0 mi NNW 29.9 mph 36.8 mph N/A   Mostly Cloudy
4:55 PM 47.3 °F - 32.0 °F 55% 29.78 in 10.0 mi North 25.3 mph 33.4 mph N/A   Overcast
5:15 PM 49.5 °F - 32.2 °F 51% 29.78 in 10.0 mi NNW 27.6 mph 36.8 mph N/A   Overcast
5:35 PM 48.4 °F - 31.1 °F 51% 29.79 in 10.0 mi North 27.6 mph 38.0 mph N/A   Mostly Cloudy
5:55 PM 45.0 °F 35.6 °F 30.4 °F 57% 29.79 in 10.0 mi NNW 27.6 mph 34.5 mph N/A   Scattered Clouds
6:15 PM 45.3 °F 36.7 °F 30.6 °F 56% 29.80 in 10.0 mi North 24.2 mph 32.2 mph N/A   Scattered Clouds
6:35 PM 44.6 °F 36.1 °F 31.1 °F 59% 29.80 in 10.0 mi North 21.9 mph 29.9 mph N/A   Mostly Cloudy
6:55 PM 43.9 °F 34.7 °F 31.3 °F 61% 29.80 in 10.0 mi NNW 24.2 mph 27.6 mph N/A   Scattered Clouds
7:15 PM 42.4 °F 33.1 °F 30.0 °F 61% 29.80 in 10.0 mi NNW 23.0 mph 29.9 mph N/A   Clear
7:35 PM 41.2 °F 32.1 °F 30.2 °F 65% 29.81 in 10.0 mi North 19.6 mph 26.5 mph N/A   Clear
7:55 PM 40.3 °F 31.3 °F 30.2 °F 67% 29.82 in 10.0 mi North 18.4 mph - N/A   Clear
8:15 PM 39.4 °F 31.4 °F 30.2 °F 70% 29.82 in 10.0 mi North 13.8 mph - N/A   Clear
8:35 PM 38.3 °F 29.7 °F 30.2 °F 73% 29.83 in 10.0 mi North 15.0 mph - N/A   Clear
8:55 PM 38.1 °F 29.8 °F 30.4 °F 74% 29.84 in 10.0 mi North 13.8 mph 19.6 mph N/A   Scattered Clouds
9:15 PM 37.0 °F 28.1 °F 30.2 °F 76% 29.85 in 10.0 mi North 15.0 mph - N/A   Scattered Clouds
9:35 PM 37.0 °F 29.3 °F 29.8 °F 75% 29.85 in 10.0 mi NNW 11.5 mph - N/A   Scattered Clouds
9:55 PM 35.8 °F 30.1 °F 29.7 °F 78% 29.87 in 10.0 mi NNW 6.9 mph - N/A   Clear
10:15 PM 34.7 °F - 29.1 °F 80% 29.88 in 10.0 mi Calm Calm - N/A   Clear
10:35 PM 34.0 °F 28.0 °F 29.3 °F 83% 29.89 in 10.0 mi NNW 6.9 mph - N/A   Scattered Clouds
10:55 PM 36.7 °F 28.9 °F 30.0 °F 77% 29.88 in 10.0 mi North 11.5 mph - N/A   Scattered Clouds
11:15 PM 35.1 °F 32.2 °F 29.7 °F 81% 29.89 in 10.0 mi South 3.5 mph - N/A   Scattered Clouds
11:35 PM 35.4 °F - 29.8 °F 80% 29.89 in 10.0 mi Calm Calm - N/A   Mostly Cloudy
11:55 PM 34.7 °F 31.8 °F 29.1 °F 80% 29.89 in 10.0 mi South 3.5 mph - N/A   Scattered Clouds